AirNav   Bose Proflight or Bose A20?
 
 616 users online  

O45 Hooker Municipal Airport
Hooker, Oklahoma, USA

GOING TO HOOKER?


FAA INFORMATION EFFECTIVE 20 JUNE 2019

Location

FAA Identifier: O45
Lat/Long: 36-51-25.4990N / 101-13-37.5300W
36-51.424983N / 101-13.625500W
36.8570831 / -101.2270917
(estimated)
Elevation: 3000.2 ft. / 914.5 m (surveyed)
Variation: 09E (1985)
From city: 1 mile W of HOOKER, OK
Time zone: UTC -5 (UTC -6 during Standard Time)
Zip code: 73945

Airport Operations

Airport use: Open to the public
Activation date: 03/1977
Control tower: no
ARTCC: KANSAS CITY CENTER
FSS: MC ALESTER FLIGHT SERVICE STATION
NOTAMs facility: MLC (NOTAM-D service available)
Attendance: UNATNDD
Wind indicator: yes
Segmented circle: yes
Lights: ACTVT MIRL RY 17/35 - CTAF.
Beacon: white-green (lighted land airport)
Operates sunset to sunrise.

Airport Communications

CTAF: 122.9
WX ASOS at GUY (17 nm SW): 119.925 (580-468-1476)
WX AWOS-3PT at LBL (17 nm NE): 118.375 (620-624-1221)
WX AWOS-3PT at HQG (20 nm N): 118.600 (620-544-4000)

Nearby radio navigation aids

VOR radial/distance  VOR name  Freq  Var
LBLr217/16.6LIBERAL VORTAC112.3011E

 
NDB name  Hdg/Dist  Freq  Var  ID
GUYMON047/16.227509EGUY --. ..- -.--
HUGOTON150/19.736509EHQG .... --.- --.
ELKHART098/32.737707EEHA . .... .-
PERRYTON312/35.326607EPYX .--. -.-- -..-

Airport Services

Fuel available: 100LL
FUEL AVBL 24 HR SELF-SERVE.
Parking: tiedowns
Airframe service: NONE
Powerplant service: NONE
Bottled oxygen: NONE
Bulk oxygen: NONE

Runway Information

Runway 17/35

Dimensions: 3312 x 60 ft. / 1009 x 18 m
Surface: asphalt, in good condition
Runway edge lights: medium intensity
RUNWAY 17  RUNWAY 35
Latitude: 36-51.697837N36-51.152145N
Longitude: 101-13.625815W101-13.625178W
Elevation: 3000.2 ft.2993.4 ft.
Traffic pattern: rightleft
Runway heading: 171 magnetic, 180 true351 magnetic, 360 true
Markings: basic, in good conditionbasic, in good condition
Visual slope indicator: 2-light PAPI on left (3.00 degrees glide path)2-light PAPI on left (3.50 degrees glide path)
Touchdown point: yes, no lightsyes, no lights
Obstructions: none57 ft. pline, marked, 1338 ft. from runway, 19:1 slope to clear

Airport Ownership and Management from official FAA records

Ownership: Publicly-owned
Owner: CITY OF HOOKER
111 S. BROADWAY, BOX 67
HOOKER, OK 73945
Phone 580-652-2885
Manager: DAVID VAIL
107 S. MAYER
HOOKER, OK 73945
Phone 580-652-2885
MAYOR.

Airport Operational Statistics

Aircraft based on the field: 11
Single engine airplanes: 11
    
Aircraft operations: avg 38/week *
70% local general aviation
30% transient general aviation
* for 12-month period ending 15 November 2017

Additional Remarks

FOR CD CTC KANSAS CITY ARTCC AT 913-254-8508.

Instrument Procedures

There are no published instrument procedures at O45.

Some nearby airports with instrument procedures:

KGUY - Guymon Municipal Airport (17 nm SW)
KLBL - Liberal Mid-America Regional Airport (17 nm NE)
KHQG - Hugoton Municipal Airport (20 nm N)
KEHA - Elkhart-Morton County Airport (32 nm W)
KPYX - Perryton Ochiltree County Airport (35 nm SE)
 
Loc | Ops | Rwys | IFR | FBO | Links
Com | Nav | Svcs | Stats | Notes

AirBoss

 
Area around O45 (Hooker Municipal Airport)
 
Road maps at: MapQuest Bing Google
 
Aerial photo
WARNING: Photo may not be current or correct
Aerial photo of O45 (Hooker Municipal Airport)
Photo by Ron Lee

Do you have a better or more recent aerial photo of Hooker Municipal Airport that you would like to share? If so, please send us your photo.

 
Sectional chart

 
Airport distance calculator
Flying to Hooker Municipal Airport? Find the distance to fly.

From to O45

Sunrise and sunset
Times for 26-Jun-2019
 Local
(UTC-5)
 Zulu
(UTC)
Morning civil twilight05:5810:58
Sunrise06:2811:28
Sunset21:0702:07
Evening civil twilight21:3802:38

Current date and time
Zulu (UTC)  26-Jun-2019 11:16:36
Local (UTC-5)  26-Jun-2019 06:16:36
 
METAR
KLBL 
16nm NE 
261056Z AUTO 18005KT 10SM CLR 16/13 A3006 RMK AO2 SLP152 T01610133
KGUY 
17nm SW 
261053Z AUTO 11005KT 10SM CLR 19/13 A3005 RMK AO2 SLP124 T01890133
KHQG 
20nm N 
261055Z AUTO 16006KT 10SM CLR 21/13 A3005 RMK AO2 T02100128
KPYX 
32nm SE 
261055Z AUTO 17004KT 10SM CLR 16/12 A3004 RMK AO2 T01550120
TAF
KLBL 
16nm NE 
260520Z 2606/2706 19010KT P6SM FEW100 FM261500 20015G25KT P6SM SCT250
KGUY 
17nm SW 
260526Z 2606/2706 19013KT P6SM SCT250 WS020/20040KT FM261400 21012KT P6SM FEW250 FM261800 19017KT P6SM FEW250
NOTAMs
Click for the latest NOTAMs
NOTAMs are issued by the DoD/FAA and will open in a separate window not controlled by AirNav.

 

 
 

FBO, Fuel Providers, and Aircraft Ground Support

  
 Business Name 
 
 Contact 
 
 Services / Description 
 
Fuel Prices
 
Comments
  
City of Hooker 580-652-2885
[email]
Aviation fuel, Pilots lounge / snooze room, Public telephone, Restrooms, Showers, Restaurant

More info about City of Hooker
Avfuel
100LL
SS $4.42 
 Updated 21-Jun-2019
 
   write
SS=Self service
Update Fuel Prices
 

Would you like to see your business listed on this page?

 If your business provides an interesting product or service to pilots, flight crews, aircraft, or users of the Hooker Municipal Airport, you should consider listing it here.  To start the listing process, click on the button below
 
Add a business
 

Other Pages about Hooker Municipal Airport

Update a link
 
Copyright © AirNav, LLC. All rights reserved. Privacy Policy  Contact